Location: Beaurecueil
(43.5122°N, 5.5450°E)
Time: 01:24:27
(UTC+00:00)

NOSS 3-2 (A) - Pass Details

Date: 18 September 2020
Orbit: 795 x 1413 km, 63.4° (Epoch: 25 October)

Event Time Altitude Azimuth Distance (km) Brightness Sun altitude
Rises 20:00:54 0° 322° (NW) 3,994 7.8 -25.0°
Reaches altitude 10° 20:03:28 10° 322° (NW) 3,112 7.0 -25.4°
Maximum altitude 20:11:06 81° 237° (WSW) 1,320 4.1 -26.6°
Enters shadow 20:13:58 46° 157° (SSE) 1,727 4.4 -27.0°
